Starlink 31402

operational
NORAD ID: 59320 Int'l Des: 2024-057 Owner: SPXS Country: US Constellation: starlink
LEOCIRCULAR

Starlink 31402について

説明を読み込み中...

リアルタイム位置

3D地球を読み込み中...

次回通過

高度履歴

Altitude vs Time

uPlot chart will show altitude changes over time

軌道要素

1 59320U 24057A 25351.38981307 -.00001610 00000-0 -48992-4 0 9998
2 59320 42.9998 244.2506 0001137 279.3192 80.7531 15.27580260 97781
Epoch: Dec 17, 2025 • Age: 15 hours

現在のステータス

高度 482.5 km
速度 7.63 km/s
衛星直下点 11.85°N, 41.85°W
打ち上げ日 Mar 25, 2024
運用期間 1.7 years
タイプ internet

技術仕様

分類 Payload
質量 730.00 kg
乾燥質量 700.00 kg
総質量 730.00 kg
長さ 0.30 m
直径 4.10 m
スパン 29.00 m
形状 Box + pan
製造者 SPXS
バスタイプ Starlink V2M
フェーズステータス In Orbit
所有者/国 SPXS/US

大規模コンステレーション

Loading constellations...